GW1732 Weather Reports


time (UTC)temp
F
wind
direction
speed
knots
gust
knots
rain 1hr
in
rain 24hr
in
rain mn
in
humidity
%
barometer
mb
20260508195229 64 315 0.0 0.0 0.00 0.00 0.02 57 998.9
20260508194209 65 293 0.0 0.0 0.00 0.00 0.02 49 999.4
20260508193657 65 293 0.0 0.0 0.00 0.00 0.02 49 999.4
20260508193346 65 293 0.0 0.0 0.00 0.00 0.02 51 999.4
20260508192836 65 248 0.0 0.0 0.00 0.00 0.02 48 999.3
20260508192325 65 203 0.0 0.0 0.00 0.00 0.02 46 999.3
20260508191814 65 270 0.0 0.0 0.00 0.00 0.02 45 999.4
20260508190755 67 225 0.0 0.0 0.00 0.00 0.02 41 999.8
20260508190245 67 315 0.0 0.0 0.00 0.00 0.02 45 999.7
20260508185734 67 270 0.0 0.0 0.00 0.00 0.02 45 999.8
20260508185224 67 293 0.0 0.0 0.00 0.00 0.02 46 999.7
20260508184714 67 0 0.0 0.0 0.00 0.00 0.02 43 999.8
20260508183654 67 158 0.0 0.0 0.00 0.00 0.02 49 999.6
20260508183144 67 203 0.0 0.0 0.00 0.00 0.02 44 999.4
20260508182123 67 293 0.0 0.0 0.00 0.00 0.02 44 999.6
20260508181613 67 293 0.0 0.0 0.00 0.00 0.02 45 999.5
20260508180553 67 270 0.0 0.0 0.00 0.00 0.02 44 999.6
20260508180046 66 225 0.0 0.0 0.00 0.00 0.02 43 999.7
20260508175533 67 180 0.0 0.0 0.00 0.00 0.02 42 999.9
20260508175023 68 270 0.0 0.0 0.00 0.00 0.02 42 999.9
20260508174513 68 270 0.0 0.0 0.00 0.00 0.02 41 999.8
20260508174003 68 248 0.0 0.0 0.00 0.00 0.02 44 1000.0
20260508173453 68 315 0.0 0.0 0.00 0.00 0.02 41 999.8
20260508172943 68 338 0.0 0.0 0.00 0.00 0.02 41 999.9
20260508172432 68 248 0.0 0.0 0.00 0.00 0.02 47 999.9
20260508171922 67 225 0.0 0.0 0.00 0.00 0.02 42 999.9
20260508171413 67 203 0.0 0.0 0.00 0.00 0.02 45 999.9
20260508170903 66 248 0.0 0.0 0.00 0.00 0.02 45 1000.0
20260508170352 67 203 0.0 0.0 0.00 0.00 0.02 43 1000.1
20260508165842 67 270 0.0 0.0 0.00 0.00 0.02 42 1000.2
20260508165332 67 270 0.0 0.0 0.00 0.00 0.02 45 1000.2
20260508164822 66 225 0.0 0.0 0.00 0.00 0.02 47 1000.2
20260508164312 67 203 0.0 0.0 0.00 0.00 0.02 41 1000.2
20260508162741 66 225 0.0 0.0 0.00 0.00 0.02 48 1000.3
20260508162231 67 225 0.0 0.0 0.00 0.00 0.02 44 1000.3
20260508161211 67 248 0.0 0.0 0.00 0.00 0.02 53 1000.5
20260508160701 66 293 0.0 0.0 0.00 0.00 0.02 55 1000.4
20260508160151 65 315 0.0 0.0 0.00 0.00 0.02 47 1000.8
20260508155131 65 248 0.0 0.0 0.00 0.00 0.02 46 1000.9
20260508154620 67 248 0.0 0.0 0.00 0.00 0.02 48 1001.2
20260508154110 66 203 0.0 0.0 0.00 0.00 0.02 49 1001.1
20260508153600 64 203 0.0 0.0 0.00 0.00 0.02 48 1001.1
20260508153050 65 225 0.0 0.0 0.00 0.00 0.02 47 1001.2
20260508152540 66 225 0.0 0.0 0.00 0.00 0.02 53 1001.2
20260508152030 65 203 0.0 0.0 0.00 0.00 0.02 50 1001.4
20260508151520 66 248 0.0 0.0 0.00 0.00 0.02 43 1001.4
20260508150459 65 270 0.0 0.0 0.00 0.00 0.02 47 1001.8
20260508145949 65 225 0.0 0.0 0.00 0.00 0.02 49 1001.6
20260508145439 65 225 0.0 0.0 0.00 0.00 0.02 58 1001.7
20260508144420 64 248 0.0 0.0 0.00 0.00 0.02 63 1001.6
20260508143359 64 248 0.0 0.0 0.00 0.00 0.02 61 1001.8
20260508142342 64 293 0.0 0.0 0.00 0.00 0.02 56 1001.9
20260508141828 63 248 0.0 0.0 0.00 0.00 0.02 58 1001.8
20260508141319 63 0 0.0 0.0 0.00 0.00 0.02 61 1001.9
20260508140808 63 270 0.0 0.0 0.00 0.00 0.02 70 1001.7
20260508140258 63 225 0.0 0.0 0.00 0.00 0.02 70 1001.9
20260508135748 62 315 0.0 0.0 0.00 0.00 0.02 72 1002.0
20260508135238 61 338 0.0 0.0 0.00 0.00 0.02 76 1001.9
20260508134728 61 293 0.0 0.0 0.00 0.00 0.02 73 1001.8
20260508134218 61 315 0.0 0.0 0.00 0.00 0.02 76 1001.7
20260508133707 60 338 0.0 0.0 0.00 0.00 0.02 75 1002.0
20260508133157 61 293 0.0 0.0 0.00 0.00 0.02 77 1001.9
20260508132647 62 270 0.0 0.0 0.00 0.00 0.02 78 1001.8
20260508132138 60 225 0.0 0.0 0.00 0.00 0.02 81 1001.7
20260508131627 60 270 0.0 0.0 0.00 0.00 0.02 74 1001.8
20260508130607 61 248 0.0 0.0 0.00 0.00 0.02 80 1001.6
20260508130057 60 293 0.0 0.0 0.00 0.00 0.02 78 1001.7
20260508125547 60 248 0.0 0.0 0.00 0.00 0.02 78 1001.7
20260508124526 59 315 0.0 0.0 0.00 0.00 0.02 81 1001.6
20260508124016 58 293 0.0 0.0 0.00 0.00 0.02 84 1001.5
20260508123506 58 270 0.0 0.0 0.00 0.00 0.02 87 1001.4
20260508122956 58 293 0.0 0.0 0.00 0.00 0.02 86 1001.6
20260508122445 57 315 0.0 0.0 0.00 0.00 0.02 86 1001.5
20260508121345 56 338 0.0 0.0 0.00 0.00 0.02 89 1001.4
20260508120833 56 315 0.0 0.0 0.00 0.00 0.02 90 1001.4
20260508104340 46 248 0.0 0.0 0.00 0.01 0.02 99 1000.2
20260508103321 46 248 0.0 0.0 0.01 0.01 0.02 99 1000.2
20260508102810 47 248 0.0 0.0 0.01 0.01 0.02 99 1000.1
20260508101240 46 248 0.0 0.0 0.01 0.01 0.02 99 999.7
20260508100219 47 248 0.0 0.0 0.01 0.01 0.02 99 999.7
20260508095709 47 248 0.0 0.0 0.01 0.01 0.02 99 999.6
20260508095159 48 248 0.0 0.0 0.01 0.01 0.02 99 999.5
20260508094649 48 248 0.0 0.0 0.01 0.01 0.02 99 999.5
20260508094139 47 248 0.0 0.0 0.01 0.01 0.02 99 999.3
20260508093629 47 248 0.0 0.0 0.00 0.00 0.01 99 999.2
20260508093118 48 248 0.0 0.0 0.00 0.00 0.01 99 999.3
20260508092608 48 248 0.0 0.0 0.00 0.00 0.01 99 999.4
20260508092058 48 248 0.0 0.0 0.00 0.00 0.01 99 999.3
20260508091549 48 248 0.0 0.0 0.00 0.00 0.01 99 999.3
20260508091038 48 248 0.0 0.0 0.00 0.00 0.01 99 999.1
20260508090528 49 248 0.0 0.0 0.00 0.00 0.01 99 999.1
20260508090018 48 248 0.0 0.0 0.00 0.00 0.01 99 999.1
20260508084958 49 248 0.0 0.0 0.00 0.00 0.01 99 999.2
20260508084447 49 248 0.0 0.0 0.00 0.00 0.01 99 999.2
20260508083937 49 248 0.0 0.0 0.00 0.00 0.01 99 999.2
20260508083428 50 248 0.0 0.0 0.00 0.00 0.01 99 999.2
20260508082917 50 248 0.0 0.0 0.00 0.00 0.01 98 999.4
20260508082408 49 248 0.0 0.0 0.00 0.00 0.01 98 999.5
20260508081857 50 248 0.0 0.0 0.00 0.00 0.01 98 999.3
20260508081347 50 248 0.0 0.0 0.00 0.00 0.01 98 999.5
20260508080837 50 248 0.0 0.0 0.00 0.00 0.01 98 999.4
20260508080325 50 248 0.0 0.0 0.00 0.00 0.01 98 999.4
20260508075816 50 248 0.0 0.0 0.00 0.00 0.01 98 999.3
20260508075308 50 248 0.0 0.0 0.00 0.00 0.01 97 999.4
20260508074756 51 248 0.0 0.0 0.00 0.00 0.01 97 999.4
20260508074246 51 248 0.0 0.0 0.00 0.00 0.01 97 999.4
20260508073736 51 225 0.0 0.0 0.00 0.00 0.01 97 999.3
20260508073226 51 225 0.0 0.0 0.00 0.00 0.01 97 999.3
20260508072206 51 225 0.0 0.0 0.00 0.00 0.01 97 999.1
20260508071655 51 225 0.0 0.0 0.00 0.00 0.01 97 999.1
20260508071145 52 225 0.0 0.0 0.00 0.00 0.01 97 999.0
20260508070635 52 225 0.0 0.0 0.00 0.00 0.01 97 999.0
20260508070125 52 248 0.0 0.0 0.00 0.00 0.01 97 998.9
20260508065616 52 225 0.0 0.0 0.00 0.00 0.01 97 998.8
20260508065106 52 225 0.0 0.0 0.00 0.00 0.01 97 998.8
20260508064555 52 225 0.0 0.0 0.00 0.00 0.01 97 998.9
20260508064045 52 248 0.0 0.0 0.00 0.00 0.01 97 999.0
20260508063534 53 248 0.0 0.0 0.00 0.00 0.01 97 998.9
20260508062514 53 248 0.0 0.0 0.00 0.00 0.01 96 999.0
20260508062004 53 248 0.0 0.0 0.00 0.00 0.01 96 998.8
20260508061454 53 248 0.0 0.0 0.00 0.00 0.01 96 998.9
20260508060944 53 248 0.0 0.0 0.00 0.00 0.01 97 998.8
20260508060435 54 135 0.0 0.0 0.00 0.00 0.01 97 998.6
20260508055925 54 248 0.0 0.0 0.00 0.00 0.01 97 998.6
20260508055414 54 248 0.0 0.0 0.00 0.00 0.01 97 998.7
20260508054354 55 338 0.0 0.0 0.00 0.00 0.01 96 998.3
20260508053843 55 203 0.0 0.0 0.00 0.00 0.01 96 998.4
20260508053333 55 225 0.0 0.0 0.00 0.00 0.01 96 998.4
20260508050743 56 203 0.0 0.0 0.00 0.00 0.01 96 998.0
20260508050232 55 225 0.0 0.0 0.00 0.00 0.01 96 998.2
20260508045722 56 225 0.0 0.0 0.00 0.00 0.01 97 998.2
20260508045211 56 225 0.0 0.0 0.00 0.00 0.01 97 998.1
20260508035501 56 135 0.0 0.0 0.01 0.11 0.01 99 997.7
20260508034441 56 135 0.0 0.0 0.00 0.09 0.00 99 997.5
20260508033930 56 135 0.0 0.0 0.00 0.09 0.00 99 997.6
20260508033420 56 135 0.0 0.0 0.00 0.09 0.00 99 996.9
20260508032400 56 135 0.0 0.0 0.00 0.09 0.00 98 997.5
20260508031850 56 135 0.0 0.0 0.00 0.09 0.00 98 996.9
20260508030830 56 135 0.0 0.0 0.00 0.09 0.00 98 996.9
20260508030320 56 135 0.0 0.0 0.00 0.09 0.00 98 996.7
20260508025809 56 158 0.0 0.0 0.00 0.09 1.30 98 996.8
20260508024749 56 158 0.0 0.0 0.01 0.09 1.30 98 996.7
20260508023729 56 158 0.0 0.0 0.06 0.09 1.30 98 996.7
20260508023219 56 158 0.0 0.0 0.09 0.09 1.30 98 996.7
20260508022708 56 158 0.0 0.0 0.09 0.09 1.30 97 996.3
20260508022158 56 158 0.0 0.0 0.09 0.09 1.30 98 996.8
20260508021648 56 158 0.0 0.0 0.09 0.09 1.30 97 997.1
20260508020628 56 180 0.0 0.0 0.09 0.09 1.30 97 997.2
20260508020118 56 180 0.0 0.0 0.09 0.09 1.30 97 997.5
20260508015608 55 180 0.0 0.0 0.09 0.09 1.30 97 997.2
20260508014547 55 158 0.0 0.0 0.08 0.08 1.29 97 997.1
20260508014037 55 203 0.0 0.0 0.06 0.06 1.26 98 997.2
20260508013015 56 203 0.0 0.0 0.00 0.00 1.20 97 997.8
20260508012222 57 248 0.0 0.0 0.06 0.06 1.04 95 997.7
20260508011712 57 180 0.0 0.0 0.04 0.04 1.02 94 997.5
20260508010141 58 270 0.0 0.0 0.00 0.00 0.98 94 996.2
20260507223340 63 158 0.0 0.0 0.38 0.38 0.87 98 993.1
20260507222829 64 248 0.0 0.0 0.35 0.35 0.85 99 993.3
20260507222320 64 225 0.0 0.0 0.32 0.32 0.81 98 994.1
20260507221810 64 158 0.0 0.0 0.27 0.27 0.78 98 993.2
20260507221259 64 248 0.0 0.0 0.22 0.22 0.72 98 993.7
20260507220239 64 180 0.0 0.0 0.17 0.17 0.66 98 991.6
20260507215729 65 248 0.0 0.0 0.14 0.14 0.64 98 991.1
20260507214709 65 180 0.0 0.0 0.11 0.11 0.60 98 991.0
20260507214157 65 225 0.0 0.0 0.00 0.00 0.50 98 991.1
20260507211322 74 338 0.0 0.0 0.11 0.11 0.11 87 987.9
20260507210812 76 338 0.0 0.0 0.07 0.07 0.07 82 988.5
20260507210302 76 293 0.0 0.0 0.06 0.06 0.06 79 988.1
20260507205752 76 315 0.0 0.0 0.06 0.06 0.06 78 987.8
20260507205242 77 315 0.0 0.0 0.06 0.06 0.06 78 988.0
20260507204731 81 23 0.0 0.0 0.04 0.04 0.04 74 987.9
20260507204221 83 23 0.0 0.0 0.00 0.00 0.00 61 987.9
20260507203711 83 338 0.0 0.0 0.00 0.00 0.00 62 988.0
20260507203201 83 0 0.0 0.0 0.00 0.00 0.00 62 988.2
20260507202651 83 23 0.0 0.0 0.00 0.00 0.00 61 988.4
20260507202141 83 23 0.0 0.0 0.00 0.00 0.00 62 988.2
20260507201631 83 23 0.0 0.0 0.00 0.00 0.00 62 988.5
20260507201121 83 0 0.0 0.0 0.00 0.00 0.00 62 988.4
20260507200611 83 315 0.0 0.0 0.00 0.00 0.00 63 988.6
20260507200109 83 0 0.0 0.0 0.00 0.00 0.00 62 988.7